Simultaneous Nadir Overpasses (SNOs) Predictions

Prediction of SNOs between GOES-16 and TERRA Satellite Orbit:

Table of predicted SNOs for the next 14.0 days since TLE Epoch: 3/14/2020
Index Date Time (GOES-16) GOES-16 Lat,Lon TERRA Lat,Lon Distance(km) Time Diff (sec)
1 03/14/2020 15:30:34 -0.02, -75.19 0.02, -75.47 30.79 80
2 03/16/2020 15:21:02 -0.03, -75.20 -0.61, -72.51 306.55 80
3 03/17/2020 03:42:26 0.03, -75.18 -0.50, -77.69 285.90 80
4 03/19/2020 03:27:34 0.03, -75.19 0.13, -74.73 52.31 80
5 03/21/2020 03:15:22 0.03, -75.21 0.77, -71.77 391.40 80
6 03/21/2020 15:36:37 -0.03, -75.24 0.34, -76.93 191.61 80
7 03/23/2020 15:27:05 -0.03, -75.27 -0.30, -73.97 148.55 80
8 03/24/2020 03:48:29 0.03, -75.26 -0.81, -79.15 443.00 80
9 03/25/2020 15:14:53 -0.03, -75.31 -0.94, -71.01 489.27 80
10 03/26/2020 03:36:17 0.03, -75.30 -0.17, -76.20 102.17 80




NCC Satellite Simultaneous Nadir Overpasses (SNOs) Prediction Service
